Find Echostar V

NORAD ID: 25913 Int'l Des: 1999-050 Owner: ECHO Country: US operational
HEOCIRCULAR

現在のビュー

3D地球を読み込み中...

About Echostar V

Echostar V (NORAD 25913) is a satellite launched Sep 23, 1999 by ECHO of US. It operates in HEO, CIRCULAR orbit with a mass of 3177.00 kg.

次回通過

Passes for default location (London). Set your location on the main map for personalized predictions.

高度履歴

Loading altitude history...

軌道要素

1 25913U 99050A 26195.14384171 .00000028 00000-0 00000+0 0 9994
2 25913 12.0095 35.8814 0002516 39.8808 331.4928 0.98744555 97146
Epoch: Jul 14, 2026 • Age: 12 hours

現在のステータス

高度 36228.6 km
遠地点 / 近地点 N/A
速度 3.06 km/s
衛星直下点 -0.96°S, 60.71°E
打ち上げ日 Sep 23, 1999
運用期間 26.8 years
タイプ other

技術仕様

分類 Payload
質量 3177.00 kg
乾燥質量 1600.00 kg
総質量 3177.00 kg
長さ 3.10 m
直径 2.40 m
スパン 25.00 m
形状 Box + 2 Pan
製造者 LOR
バスタイプ FS-1300
フェーズステータス Renamed
所有者/国 ECHO/US

Most Searched